RH
67 56 57 60 57 64 62 58 60 40 36 29 36 42 46 42 45 46 46 46 49 48 52 56 61 63 66 64 67 70 71 72 74 75 71 65 63 62 65 68 71 70 68 63
73 47 53 56 60 60 68 60 54 40 43 31 44 44 43 46 52 51 45 46 49 52 55 55 59 66 66 67 68 69 74 77 77 75 69 65 63 66 70 73 71 71 69 64
96 60 47 64 59 61 62 55 53 52 29 52 43 49 48 46 51 59 53 50 51 53 54 60 64 69 68 70 71 72 76 77 77 73 68 64 67 73 74 74 77 74 66 61
95 94 92 54 44 47 56 54 47 38 30 46 44 49 52 50 51 58 55 56 51 55 54 64 68 70 71 71 71 73 75 77 75 72 68 70 75 77 76 78 78 73 62 55
96 96 86 66 49 49 46 38 36 40 31 38 41 52 46 51 54 59 59 54 51 55 59 65 70 72 72 71 73 75 77 77 75 72 73 79 80 78 81 82 71 59 55 53
94 97 95 53 40 51 63 64 37 41 38 41 47 55 37 53 59 59 59 58 63 62 62 67 68 73 71 73 76 77 81 80 76 75 81 83 82 80 79 74 58 56 54 47
97 98 83 59 57 66 69 53 41 44 39 45 51 49 52 53 55 60 63 69 72 72 70 71 71 73 74 78 81 83 83 77 80 86 86 82 80 80 75 63 58 55 46 42
80 91 85 52 67 85 52 53 54 61 56 53 58 63 66 68 63 61 67 73 78 76 76 76 76 78 80 84 86 85 83 84 87 86 83 83 82 76 69 59 54 46 43 40
79 62 59 73 74 74 77 68 70 68 65 67 66 71 71 75 75 72 74 76 78 80 80 79 80 83 87 89 90 87 83 86 84 84 84 86 80 69 59 54 47 44 42 37
90 71 67 75 83 72 75 76 70 66 69 69 70 73 75 75 75 78 80 81 81 81 83 85 86 89 91 91 87 83 85 86 86 88 86 80 72 58 53 49 46 43 38 38
72 75 87 81 75 78 76 82 81 75 73 76 76 76 77 80 80 83 83 84 84 84 86 87 90 90 90 86 86 88 93 89 92 92 81 69 58 56 51 47 43 40 39 39
61 68 91 90 80 71 67 74 79 83 78 80 79 76 80 81 79 80 82 83 85 88 90 91 90 90 91 92 91 95 94 94 88 76 69 59 56 52 47 44 42 41 41 40
58 62 70 78 90 69 69 69 78 87 90 89 83 82 81 81 80 78 80 84 86 90 92 92 93 93 95 92 95 95 93 85 76 67 58 58 52 47 45 43 43 42 41 40
69 74 88 96 86 86 85 84 85 87 89 83 82 82 83 83 81 80 80 82 84 87 87 89 90 91 90 94 92 90 84 71 60 61 59 52 47 46 47 44 43 41 43 41
68 69 85 94 91 80 78 82 87 87 87 86 82 82 82 81 82 83 85 86 86 86 85 84 84 84 84 82 84 81 64 66 63 55 49 48 50 49 44 43 44 42 43 41
73 74 79 96 95 93 91 89 90 91 90 88 84 83 81 82 81 80 83 84 82 81 81 79 77 77 77 79 67 68 66 58 52 50 51 51 46 43 43 42 41 43 41 40
78 83 90 96 94 90 88 87 90 91 90 87 82 80 80 79 77 76 77 78 79 77 74 74 76 74 69 69 68 60 53 51 52 52 49 44 43 42 41 41 41 40 38 38
80 80 93 93 92 87 88 90 88 87 85 82 80 80 80 79 76 75 76 76 77 74 73 68 67 68 65 60 57 54 53 52 51 48 45 42 42 43 44 46 46 44 43 44
92 92 97 96 97 95 92 89 88 85 83 81 78 77 76 76 79 78 76 72 68 69 70 67 63 59 56 54 53 53 53 49 45 44 44 43 44 47 49 50 48 48 49 48
87 88 92 92 90 89 89 88 86 82 78 76 72 73 77 76 72 69 68 68 68 64 60 57 55 53 52 51 48 45 43 43 44 47 48 49 52 53 52 51 51 50 46 44
82 85 85 88 88 90 89 84 79 76 75 75 79 80 75 72 72 69 67 63 61 56 53 50 47 45 45 47 47 46 47 48 50 51 53 56 58 57 55 49 43 42 43 46
89 87 86 89 89 86 82 82 81 83 86 84 79 77 75 73 70 68 65 55 49 48 49 52 56 54 52 52 57 55 54 56 58 57 56 56 52 45 41 41 43 44 48 52
95 89 86 84 83 88 90 91 91 87 82 79 78 77 74 72 69 64 60 58 57 59 61 54 54 56 58 60 59 59 57 54 50 48 44 40 41 43 46 51 55 59 62 63
98 98 98 97 97 93 86 84 81 79 78 78 77 74 69 60 57 58 58 58 57 58 58 60 61 60 59 56 49 41 35 33 38 42 46 49 54 60 66 66 62 55 47 40
95 96 93 93 91 87 82 80 78 77 78 77 71 64 61 63 62 64 63 61 60 58 55 54 53 47 39 33 31 34 42 50 54 58 62 63 63 59 51 44 38 36 36 36
89 88 85 83 84 85 86 83 82 79 72 64 58 59 61 64 65 62 60 56 53 52 51 42 36 35 39 45 52 57 59 59 58 57 52 46 42 39 39 39 39 39 39 40
80 79 79 81 84 84 80 76 70 63 63 65 68 70 67 62 58 55 51 47 42 40 44 52 55 57 58 56 52 48 44 40 38 38 38 38 38 38 38 39 40 41 44 45